Powrót do katalogu

FENGYUN 1C DEB

AktywnySSO
NORAD 30392·DEBRIS·🇨🇳 China

Wystrzelony May 10, 1999 z Taiyuan Satellite Launch Center

Loading…

Następne Przeloty (najbliższe 24 godziny)

TLE

ŚwieżeSource: Space-Track

Epoka: Sep 14, 2026, 00:45 UTC

1 30392U 99025ADF 26257.03170225  .00000574  00000-0  31410-3 0  9992
2 30392  98.7719 273.1071 0178694 300.6982  83.2072 14.08003566  5363

Śledź FENGYUN 1C DEB w czasie rzeczywistym z AllMySat

Download on the App Store